| time (UTC) | temp F | wind direction | speed knots | gust knots | rain 1hr in | rain 24hr in | rain mn in | humidity % | barometer mb |
| 20260505004543 | 58 | 261 | 4.3 | 7.8 | 0.00 | 0.00 | 0.00 | 82 | 1012.8 |
| 20260505003039 | 59 | 288 | 5.2 | 7.8 | 0.00 | 0.00 | 0.00 | 82 | 1012.8 |
| 20260505001531 | 59 | 269 | 5.2 | 8.7 | 0.00 | 0.00 | 0.00 | 83 | 1012.6 |
| 20260505000039 | 60 | 269 | 2.6 | 7.8 | 0.00 | 0.00 | 0.00 | 82 | 1012.7 |
| 20260504234532 | 61 | 239 | 4.3 | 10.4 | 0.00 | 0.00 | 0.00 | 81 | 1012.7 |
| 20260504233030 | 62 | 360 | 4.3 | 9.6 | 0.00 | 0.00 | 0.00 | 80 | 1012.6 |
| 20260504231542 | 62 | 292 | 0.9 | 7.0 | 0.00 | 0.00 | 0.00 | 80 | 1012.6 |
| 20260504230051 | 62 | 215 | 4.3 | 10.4 | 0.00 | 0.00 | 0.00 | 80 | 1012.6 |
| 20260504224547 | 63 | 225 | 6.1 | 11.3 | 0.00 | 0.00 | 0.00 | 79 | 1012.6 |
| 20260504223040 | 62 | 256 | 3.5 | 10.4 | 0.00 | 0.00 | 0.00 | 80 | 1012.8 |
| 20260504221557 | 63 | 286 | 0.9 | 5.2 | 0.00 | 0.00 | 0.00 | 79 | 1012.7 |
| 20260504220105 | 63 | 291 | 0.0 | 9.6 | 0.00 | 0.00 | 0.00 | 78 | 1012.7 |
| 20260504214537 | 64 | 252 | 4.3 | 9.6 | 0.00 | 0.00 | 0.00 | 78 | 1012.7 |
| 20260504213053 | 63 | 246 | 1.7 | 10.4 | 0.00 | 0.00 | 0.00 | 79 | 1012.7 |
| 20260504211544 | 64 | 300 | 5.2 | 10.4 | 0.00 | 0.00 | 0.00 | 77 | 1012.7 |
| 20260504210034 | 65 | 286 | 2.6 | 7.0 | 0.00 | 0.00 | 0.00 | 78 | 1012.6 |
| 20260504204528 | 65 | 240 | 1.7 | 7.8 | 0.00 | 0.00 | 0.00 | 77 | 1012.7 |
| 20260504203043 | 65 | 275 | 0.9 | 6.1 | 0.00 | 0.00 | 0.00 | 78 | 1012.7 |
| 20260504201538 | 65 | 254 | 2.6 | 7.0 | 0.00 | 0.00 | 0.00 | 77 | 1012.7 |
| 20260504200046 | 65 | 256 | 3.5 | 7.8 | 0.00 | 0.00 | 0.00 | 77 | 1012.7 |
| 20260504194544 | 64 | 200 | 2.6 | 7.0 | 0.00 | 0.00 | 0.00 | 78 | 1012.7 |
| 20260504193037 | 64 | 273 | 0.0 | 7.8 | 0.00 | 0.00 | 0.00 | 78 | 1012.7 |
| 20260504191535 | 63 | 254 | 3.5 | 7.8 | 0.00 | 0.00 | 0.00 | 79 | 1012.7 |
| 20260504190043 | 62 | 248 | 0.0 | 7.0 | 0.00 | 0.00 | 0.00 | 79 | 1012.8 |
| 20260504184535 | 62 | 246 | 3.5 | 8.7 | 0.00 | 0.00 | 0.00 | 80 | 1012.9 |
| 20260504183033 | 61 | 254 | 0.9 | 6.1 | 0.00 | 0.00 | 0.00 | 80 | 1013.0 |
| 20260504181546 | 60 | 227 | 2.6 | 5.2 | 0.00 | 0.00 | 0.00 | 80 | 1013.0 |
| 20260504180038 | 60 | 254 | 0.9 | 6.1 | 0.00 | 0.00 | 0.00 | 81 | 1012.8 |
| 20260504174552 | 59 | 360 | 1.7 | 5.2 | 0.00 | 0.00 | 0.00 | 81 | 1012.9 |
| 20260504173031 | 59 | 225 | 0.9 | 3.5 | 0.00 | 0.00 | 0.00 | 82 | 1012.9 |
| 20260504171544 | 58 | 243 | 1.7 | 5.2 | 0.00 | 0.00 | 0.00 | 82 | 1012.8 |
| 20260504081601 | 56 | 121 | 0.0 | 0.0 | 0.00 | 0.00 | 0.00 | 83 | 1008.9 |
| 20260504044538 | 64 | 121 | 0.0 | 0.0 | 0.00 | 0.00 | 0.00 | 75 | 1008.6 |
| 20260504043032 | 65 | 121 | 0.0 | 0.0 | 0.00 | 0.00 | 0.00 | 74 | 1008.7 |
| 20260504041528 | 66 | 117 | 0.0 | 0.0 | 0.00 | 0.00 | 0.00 | 74 | 1008.6 |
| 20260504040036 | 67 | 117 | 0.0 | 0.0 | 0.00 | 0.00 | 0.00 | 72 | 1008.5 |
| 20260504034533 | 68 | 243 | 0.0 | 0.0 | 0.00 | 0.00 | 0.00 | 70 | 1008.2 |
| 20260504033027 | 70 | 197 | 0.0 | 0.9 | 0.00 | 0.00 | 0.00 | 67 | 1008.2 |
| 20260504031540 | 71 | 207 | 0.0 | 0.0 | 0.00 | 0.00 | 0.00 | 66 | 1008.0 |
| 20260504030033 | 71 | 205 | 0.0 | 3.5 | 0.00 | 0.00 | 0.00 | 64 | 1008.1 |
| 20260504024546 | 72 | 205 | 0.0 | 0.0 | 0.00 | 0.00 | 0.00 | 63 | 1008.1 |
| 20260504023043 | 72 | 209 | 0.0 | 3.5 | 0.00 | 0.00 | 0.00 | 64 | 1008.1 |
| 20260504021535 | 73 | 213 | 0.0 | 3.5 | 0.00 | 0.00 | 0.00 | 62 | 1008.1 |
| 20260504020049 | 74 | 207 | 0.0 | 2.6 | 0.00 | 0.00 | 0.00 | 61 | 1008.1 |
| 20260504014542 | 74 | 211 | 0.0 | 2.6 | 0.00 | 0.00 | 0.00 | 60 | 1008.2 |
| 20260504013035 | 75 | 360 | 0.0 | 1.7 | 0.00 | 0.00 | 0.00 | 60 | 1008.3 |
| 20260504011534 | 76 | 203 | 0.0 | 3.5 | 0.00 | 0.00 | 0.00 | 59 | 1008.4 |
| 20260504010042 | 77 | 228 | 0.0 | 2.6 | 0.00 | 0.00 | 0.00 | 60 | 1008.5 |